Change the Weather History Date:

Thursday, February 6, 2014

  Actual Average Record
Temperature  
Mean Temperature 44 °F -  
Max Temperature 47 °F 41 °F 51 °F (2001)
Min Temperature 42 °F 34 °F 14 °F (2012)
Degree Days  
Heating Degree Days 20    
Moisture  
Dew Point 41 °F    
Average Humidity 85    
Maximum Humidity 100    
Minimum Humidity 69    
Precipitation  
Precipitation 0.02 in 0.06 in - ()
Sea Level Pressure  
Sea Level Pressure 29.35 in    
Wind  
Wind Speed 25 mph ()    
Max Wind Speed 36 mph    
Max Gust Speed 44 mph    
Visibility 6.3 miles    
Events Rain    
Averages and records for this station are not official NWS values.
T = Trace of Precipitation, MM = Missing Value Source: Averaged Metar Reports

Daily Weather History Graph

Daily Weather History Graph

Search for Another Location

Airport or City:

Trip Planner

Search our weather history database for the weather conditions in past years. The results will help you decide how hot, cold, wet, or windy it might be!

Date:

Astronomy

Feb. 06, 2014 Rise Set
Actual Time 8:15 AM CET 5:35 PM CET
Civil Twilight 7:38 AM CET 6:11 PM CET
Nautical Twilight 6:57 AM CET 6:53 PM CET
Astronomical Twilight 6:17 AM CET 7:33 PM CET
Moon 10:56 AM CET 1:13 AM CET
Length of Visible Light 10h 33m
Length of Day
9h 19m
Waxing Crescent, 46% of the Moon is Illuminated
Feb 6
Waxing Crescent
Feb 6
First Quarter
Feb 15
Full
Feb 22
Last Quarter
Mar 1
New

Hourly Weather History & Observations

Time (CET) Temp. Windchill Dew Point Humidity Pressure Visibility Wind Dir Wind Speed Gust Speed Precip Events Conditions
12:00 AM 47 °F - 42 °F 76% 29.26 in 7 mi SSW 35.8 mph - -   Partly Cloudy
12:25 AM 46.4 °F 36.7 °F 41.0 °F 81% 29.24 in 6.2 mi SSW 33.4 mph - N/A   Mostly Cloudy
12:55 AM 46.4 °F 37.2 °F 42.8 °F 87% 29.27 in 6.2 mi SSW 29.9 mph 41.4 mph N/A   Mostly Cloudy
1:00 AM 46 °F - 42 °F 80% 29.29 in 7 mi SSW 31.3 mph - -   Partly Cloudy
1:05 AM 46.4 °F 37.2 °F 42.8 °F 87% 29.27 in 6.2 mi SSW 29.9 mph 42.6 mph N/A   Overcast
1:09 AM 46.4 °F 37.4 °F 41.0 °F 81% 29.27 in 6.2 mi SSW 28.8 mph - N/A   Mostly Cloudy
1:25 AM 46.4 °F 37.4 °F 41.0 °F 81% 29.27 in 6.2 mi SSW 28.8 mph - N/A   Mostly Cloudy
1:55 AM 46.4 °F 37.4 °F 41.0 °F 81% 29.30 in 6.2 mi SSW 28.8 mph - N/A   Scattered Clouds
2:00 AM 46 °F - 41 °F 77% 29.31 in 6 mi SSW 29.1 mph - -   Mist
2:25 AM 46.4 °F 37.2 °F 41.0 °F 81% 29.30 in 6.2 mi SSW 29.9 mph - N/A   Mostly Cloudy
2:27 AM 46.4 °F 37.2 °F 41.0 °F 81% 29.30 in 6.2 mi SSW 29.9 mph - N/A   Mostly Cloudy
2:37 AM 46.4 °F 37.2 °F 41.0 °F 81% 29.30 in 6.2 mi SSW 29.9 mph 41.4 mph N/A   Mostly Cloudy
2:55 AM 46.4 °F 37.0 °F 41.0 °F 81% 29.33 in 6.2 mi SSW 31.1 mph 43.7 mph N/A   Unknown
3:00 AM 46 °F - 41 °F 76% 29.34 in 6 mi SSW 31.3 mph - -   Partly Cloudy
3:13 AM 46.4 °F 37.4 °F 41.0 °F 81% 29.33 in 6.2 mi SSW 28.8 mph - N/A   Mostly Cloudy
3:17 AM 46.4 °F 37.0 °F 41.0 °F 81% 29.33 in 6.2 mi SSW 31.1 mph - N/A   Mostly Cloudy
3:25 AM 46.4 °F 37.2 °F 41.0 °F 81% 29.33 in 6.2 mi SSW 29.9 mph - N/A   Overcast
3:37 AM 46.4 °F 37.2 °F 41.0 °F 81% 29.33 in 6.2 mi SSW 29.9 mph 41.4 mph N/A   Mostly Cloudy
3:55 AM 44.6 °F 34.6 °F 41.0 °F 87% 29.33 in 6.2 mi SSW 31.1 mph 43.7 mph N/A   Mostly Cloudy
4:00 AM 46 °F - 40 °F 74% 29.36 in 6 mi SSW 31.3 mph - -   Scattered Clouds
4:25 AM 44.6 °F 34.7 °F 39.2 °F 81% 29.36 in 6.2 mi SSW 29.9 mph - N/A   Partly Cloudy
4:27 AM 44.6 °F 34.7 °F 39.2 °F 81% 29.36 in 6.2 mi SSW 29.9 mph - N/A   Scattered Clouds
4:31 AM 44.6 °F 34.7 °F 39.2 °F 81% 29.36 in 6.2 mi SSW 29.9 mph - N/A   Mostly Cloudy
4:55 AM 44.6 °F 34.9 °F 41.0 °F 87% 29.36 in 6.2 mi SSW 28.8 mph - N/A   Mostly Cloudy
5:00 AM 45 °F - 40 °F 77% 29.37 in 7 mi SSW 29.1 mph - -   Overcast
5:04 AM 44.6 °F 34.7 °F 41.0 °F 87% 29.36 in 6.2 mi SSW 29.9 mph 41.4 mph N/A   Mostly Cloudy
5:08 AM 44.6 °F 34.7 °F 41.0 °F 87% 29.36 in 6.2 mi SSW 29.9 mph 41.4 mph N/A   Mostly Cloudy
5:17 AM 44.6 °F 34.7 °F 39.2 °F 81% 29.36 in 6.2 mi SSW 29.9 mph 42.6 mph N/A   Mostly Cloudy
5:25 AM 44.6 °F 34.7 °F 39.2 °F 81% 29.36 in 6.2 mi SSW 29.9 mph 42.6 mph N/A   Mostly Cloudy
5:27 AM 44.6 °F 34.7 °F 41.0 °F 87% 29.36 in 6.2 mi SSW 29.9 mph - N/A   Mostly Cloudy
5:41 AM 44.6 °F 34.9 °F 41.0 °F 87% 29.36 in 6.2 mi SSW 28.8 mph - N/A   Partly Cloudy
5:55 AM 44.6 °F 34.9 °F 41.0 °F 87% 29.36 in 6.2 mi SSW 28.8 mph - N/A   Scattered Clouds
6:00 AM 45 °F - 40 °F 78% 29.38 in 7 mi SSW 29.1 mph - -   Scattered Clouds
6:17 AM 44.6 °F 34.9 °F 41.0 °F 87% 29.39 in 6.2 mi SSW 28.8 mph - N/A   Mostly Cloudy
6:25 AM 44.6 °F 34.9 °F 41.0 °F 87% 29.39 in 6.2 mi SSW 28.8 mph 40.3 mph N/A   Scattered Clouds
6:45 AM 44.6 °F 35.1 °F 41.0 °F 87% 29.39 in 6.2 mi SSW 27.6 mph - N/A   Scattered Clouds
6:54 AM 44.6 °F 35.1 °F 41.0 °F 87% 29.39 in 6.2 mi SSW 27.6 mph - N/A   Scattered Clouds
6:55 AM 44.6 °F 35.1 °F 41.0 °F 87% 29.39 in 6.2 mi SSW 27.6 mph - N/A   Mostly Cloudy
7:00 AM 44 °F - 40 °F 83% 29.40 in 7 mi SSW 29.1 mph - -   Partly Cloudy
7:04 AM 44.6 °F 35.1 °F 41.0 °F 87% 29.39 in 6.2 mi SSW 27.6 mph - N/A   Mostly Cloudy
7:08 AM 44.6 °F 35.1 °F 41.0 °F 87% 29.39 in 6.2 mi SSW 27.6 mph - N/A   Mostly Cloudy
7:17 AM 44.6 °F 34.7 °F 41.0 °F 87% 29.39 in 6.2 mi SSW 29.9 mph - N/A   Scattered Clouds
7:25 AM 44.6 °F 34.7 °F 41.0 °F 87% 29.39 in 6.2 mi SSW 29.9 mph 41.4 mph N/A   Mostly Cloudy
7:31 AM 44.6 °F 34.9 °F 41.0 °F 87% 29.39 in 6.2 mi SSW 28.8 mph - N/A   Overcast
7:55 AM 44.6 °F 34.9 °F 41.0 °F 87% 29.39 in 6.2 mi SSW 28.8 mph - N/A   Mostly Cloudy
8:00 AM 44 °F - 40 °F 82% 29.42 in 7 mi SSW 26.8 mph - -   Overcast
8:01 AM 44.6 °F 35.3 °F 41.0 °F 87% 29.39 in 6.2 mi SSW 26.5 mph 39.1 mph N/A   Mostly Cloudy
8:25 AM 44.6 °F 35.1 °F 41.0 °F 87% 29.42 in 6.2 mi SSW 27.6 mph - N/A   Mostly Cloudy
8:39 AM 44.6 °F 34.9 °F 41.0 °F 87% 29.42 in 6.2 mi SSW 28.8 mph - N/A   Scattered Clouds
8:47 AM 44.6 °F 34.6 °F 41.0 °F 87% 29.42 in 6.2 mi SSW 31.1 mph - N/A   Mostly Cloudy
8:55 AM 44.6 °F 34.7 °F 41.0 °F 87% 29.42 in 6.2 mi SSW 29.9 mph - N/A   Mostly Cloudy
9:00 AM 45 °F - 40 °F 76% 29.44 in 7 mi SSW 29.1 mph - -   Overcast
9:25 AM 44.6 °F 34.7 °F 41.0 °F 87% 29.44 in 6.2 mi SSW 29.9 mph - N/A   Mostly Cloudy
9:27 AM 44.6 °F 34.9 °F 41.0 °F 87% 29.44 in 6.2 mi SSW 28.8 mph 40.3 mph N/A   Mostly Cloudy
9:36 AM 44.6 °F 35.1 °F 41.0 °F 87% 29.44 in 6.2 mi SSW 27.6 mph 39.1 mph N/A   Mostly Cloudy
9:55 AM 44.6 °F 35.1 °F 41.0 °F 87% 29.44 in 6.2 mi SSW 27.6 mph 39.1 mph N/A   Mostly Cloudy
10:00 AM 45 °F - 40 °F 78% 29.47 in 7 mi SSW 26.8 mph - -   Partly Cloudy
10:25 AM 44.6 °F 35.3 °F 41.0 °F 87% 29.44 in 6.2 mi SSW 26.5 mph - N/A   Mostly Cloudy
10:40 AM 46.4 °F 37.7 °F 41.0 °F 81% 29.47 in 6.2 mi SSW 26.5 mph - N/A   Mostly Cloudy
10:55 AM 46.4 °F 37.4 °F 41.0 °F 81% 29.47 in 6.2 mi SSW 28.8 mph 40.3 mph N/A   Mostly Cloudy
11:00 AM 45 °F - 40 °F 78% 29.49 in 7 mi SSW 29.1 mph - -   Scattered Clouds
11:25 AM 46.4 °F 37.7 °F 41.0 °F 81% 29.47 in 6.2 mi SSW 26.5 mph - N/A   Mostly Cloudy
11:38 AM 46.4 °F 37.7 °F 41.0 °F 81% 29.47 in 6.2 mi SSW 26.5 mph - N/A   Mostly Cloudy
11:42 AM 46.4 °F 37.7 °F 41.0 °F 81% 29.47 in 6.2 mi SSW 26.5 mph - N/A   Scattered Clouds
11:55 AM 46.4 °F 37.5 °F 41.0 °F 81% 29.50 in 6.2 mi SSW 27.6 mph - N/A   Partly Cloudy
12:00 PM 46 °F - 40 °F 74% 29.51 in 7 mi SSW 29.1 mph - -   Scattered Clouds
12:08 PM 46.4 °F 37.4 °F 41.0 °F 81% 29.50 in 6.2 mi SSW 28.8 mph 41.4 mph N/A   Scattered Clouds
12:12 PM 46.4 °F 37.7 °F 41.0 °F 81% 29.50 in 6.2 mi SSW 26.5 mph 41.4 mph N/A   Mostly Cloudy
12:25 PM 46.4 °F 37.5 °F 41.0 °F 81% 29.50 in 6.2 mi SSW 27.6 mph - N/A   Mostly Cloudy
12:32 PM 46.4 °F 37.4 °F 39.2 °F 76% 29.50 in 6.2 mi SSW 28.8 mph - N/A   Partly Cloudy
12:55 PM 46.4 °F 37.5 °F 39.2 °F 76% 29.50 in 6.2 mi SSW 27.6 mph - N/A   Unknown
1:00 PM 46 °F - 40 °F 73% 29.51 in 7 mi SSW 26.8 mph - -   Partly Cloudy
1:25 PM 46.4 °F 37.5 °F 41.0 °F 81% 29.50 in 6.2 mi SSW 27.6 mph - N/A   Unknown
1:55 PM 46.4 °F 37.9 °F 41.0 °F 81% 29.47 in 6.2 mi SSW 25.3 mph - N/A   Unknown
2:00 PM 47 °F - 40 °F 69% 29.49 in 9 mi SSW 24.6 mph - -  
2:25 PM 46.4 °F 38.3 °F 41.0 °F 81% 29.47 in 6.2 mi SSW 23.0 mph - N/A   Partly Cloudy
2:55 PM 46.4 °F 38.5 °F 39.2 °F 76% 29.47 in 6.2 mi SSW 21.9 mph - N/A   Unknown
3:00 PM 47 °F - 40 °F 69% 29.47 in 11 mi SSW 24.6 mph - -   Partly Cloudy
3:03 PM 48.2 °F - 39.2 °F 71% 29.47 in 6.2 mi SSW 24.2 mph - N/A   Scattered Clouds
3:04 PM 48.2 °F - 41.0 °F 76% 29.44 in 6.2 mi SSW 23.0 mph - N/A   Mostly Cloudy
3:07 PM 48.2 °F - 41.0 °F 76% 29.44 in 6.2 mi SSW 23.0 mph - N/A   Mostly Cloudy
3:25 PM 48.2 °F - 41.0 °F 76% 29.44 in 6.2 mi SSW 20.7 mph - N/A   Overcast
3:47 PM 46.4 °F 38.1 °F 41.0 °F 81% 29.44 in 6.2 mi SSW 24.2 mph - N/A   Mostly Cloudy
3:55 PM 46.4 °F 37.9 °F 41.0 °F 81% 29.44 in 6.2 mi SSW 25.3 mph - N/A   Mostly Cloudy
4:00 PM 47 °F - 41 °F 73% 29.45 in 10 mi SSW 22.4 mph - -   Overcast
4:12 PM 46.4 °F 38.7 °F 41.0 °F 81% 29.44 in 6.2 mi SSW 20.7 mph - N/A   Overcast
4:25 PM 46.4 °F 38.1 °F 39.2 °F 76% 29.44 in 6.2 mi SSW 24.2 mph - N/A   Overcast
4:55 PM 44.6 °F 37.2 °F 41.0 °F 87% 29.42 in 6.2 mi South 17.3 mph - N/A   Mostly Cloudy
5:00 PM 45 °F - 40 °F 78% 29.42 in 16 mi SSW 17.9 mph - -   Scattered Clouds
5:25 PM 44.6 °F 38.1 °F 39.2 °F 81% 29.42 in 6.2 mi South 13.8 mph - N/A   Partly Cloudy
5:55 PM 44.6 °F 39.7 °F 41.0 °F 87% 29.39 in 6.2 mi South 9.2 mph - N/A   Overcast
5:57 PM 44.6 °F 39.2 °F 41.0 °F 87% 29.39 in 6.2 mi SSE 10.4 mph - N/A   Drizzle
6:00 PM 45 °F - 41 °F 79% 29.39 in 7 mi SSE 11.2 mph - - Rain Drizzle
6:25 PM 44.6 °F 38.1 °F 41.0 °F 87% 29.39 in 6.2 mi SSE 13.8 mph - N/A Rain Light Rain
6:27 PM 44.6 °F 37.4 °F 41.0 °F 87% 29.39 in 6.2 mi SSE 16.1 mph - N/A Rain Drizzle
6:31 PM 44.6 °F 37.8 °F 41.0 °F 87% 29.39 in 6.2 mi SSE 15.0 mph - N/A   Drizzle
6:39 PM 44.6 °F 37.4 °F 41.0 °F 87% 29.36 in 6.2 mi SSE 16.1 mph - N/A   Drizzle
6:45 PM 44.6 °F 37.8 °F 41.0 °F 87% 29.36 in 6.2 mi SSE 15.0 mph - N/A   Drizzle
6:49 PM 44.6 °F 37.8 °F 41.0 °F 87% 29.36 in 6.2 mi SSE 15.0 mph - N/A   Drizzle
6:55 PM 44.6 °F 37.4 °F 41.0 °F 87% 29.36 in 6.2 mi SSE 16.1 mph - N/A   Drizzle
7:00 PM 44 °F - 41 °F 84% 29.37 in 10 mi SSE 15.7 mph - - Rain Light Drizzle
7:16 PM 42.8 °F 36.2 °F 41.0 °F 93% 29.36 in 6.2 mi SSE 12.7 mph - N/A Rain Light Rain
7:25 PM 42.8 °F 36.2 °F 41.0 °F 93% 29.33 in 6.2 mi SE 12.7 mph - N/A   Light Drizzle
7:32 PM 42.8 °F 35.4 °F 41.0 °F 93% 29.33 in 6.2 mi SSE 15.0 mph - N/A Rain Light Rain
7:36 PM 42.8 °F 35.1 °F 41.0 °F 93% 29.33 in 6.2 mi SSE 16.1 mph - N/A Rain Light Rain
7:55 PM 42.8 °F 34.8 °F 41.0 °F 93% 29.33 in 6.2 mi SSE 17.3 mph - N/A Rain Light Rain
7:57 PM 42.8 °F 34.5 °F 41.0 °F 93% 29.30 in 6.2 mi SSE 18.4 mph - N/A Rain Light Rain
8:00 PM 43 °F - 41 °F 91% 29.31 in 6 mi SSE 20.1 mph - - Rain Rain
8:25 PM 42.8 °F 34.3 °F 41.0 °F 93% 29.30 in 6.2 mi SSE 19.6 mph - N/A Rain Light Rain
8:31 PM 42.8 °F 33.8 °F 39.2 °F 87% 29.30 in 6.2 mi SSE 21.9 mph 33.4 mph N/A Rain Light Rain
8:45 PM 42.8 °F 34.3 °F 41.0 °F 93% 29.27 in 6.2 mi SSE 19.6 mph - N/A Rain Light Rain
8:49 PM 42.8 °F 34.3 °F 41.0 °F 93% 29.27 in 6.2 mi SSE 19.6 mph - N/A Rain Light Rain
8:55 PM 42.8 °F 34.3 °F 41.0 °F 93% 29.27 in 6.2 mi SSE 19.6 mph - N/A Rain Light Rain
9:00 PM 42 °F - 41 °F 93% 29.27 in 5 mi SSE 20.1 mph - - Rain Rain
9:11 PM 42.8 °F 34.0 °F 41.0 °F 93% 29.27 in 4.3 mi SSE 20.7 mph - N/A Rain Light Rain Showers
9:15 PM 42.8 °F 34.3 °F 41.0 °F 93% 29.24 in 3.1 mi SSE 19.6 mph - N/A Rain Light Rain Showers
9:19 PM 42.8 °F 34.3 °F 41.0 °F 93% 29.24 in - SSE 19.6 mph - N/A   Overcast
9:25 PM 42.8 °F 34.0 °F 41.0 °F 93% 29.24 in 3.1 mi SSE 20.7 mph - N/A   Overcast
9:27 PM 42.8 °F 34.0 °F 41.0 °F 93% 29.24 in 6.2 mi SSE 20.7 mph - N/A Rain Light Rain Showers
9:31 PM 42.8 °F 34.3 °F 41.0 °F 93% 29.24 in 6.2 mi SSE 19.6 mph - N/A Rain Light Rain Showers
9:35 PM 42.8 °F 34.0 °F 41.0 °F 93% 29.24 in 6.2 mi SE 20.7 mph - N/A Rain Light Rain Showers
9:48 PM 42.8 °F 34.3 °F 41.0 °F 93% 29.21 in 5.6 mi SE 19.6 mph 31.1 mph N/A Rain Light Rain
9:55 PM 42.8 °F 34.0 °F 41.0 °F 93% 29.21 in 4.3 mi SE 20.7 mph - N/A Rain Light Rain
9:57 PM 42.8 °F 33.8 °F 41.0 °F 93% 29.21 in 4.3 mi SSE 21.9 mph - N/A Rain Light Rain
10:00 PM 42 °F - 41 °F 96% 29.23 in 4 mi SSE 20.1 mph - - Rain Rain Showers
10:05 PM 42.8 °F 34.3 °F 41.0 °F 93% 29.21 in 5.6 mi SSE 19.6 mph - N/A Rain Light Rain Showers
10:11 PM 42.8 °F 34.3 °F 41.0 °F 93% 29.21 in 6.2 mi SSE 19.6 mph - N/A Rain Light Rain Showers
10:15 PM 42.8 °F 34.0 °F 41.0 °F 93% 29.21 in 5.6 mi SSE 20.7 mph - N/A Rain Light Rain Showers
10:25 PM 42.8 °F 34.0 °F 41.0 °F 93% 29.21 in 3.7 mi SSE 20.7 mph 32.2 mph N/A Rain Light Rain
10:32 PM 42.8 °F 33.8 °F 41.0 °F 93% 29.18 in 5.0 mi SSE 21.9 mph - N/A Rain Light Rain
10:36 PM 42.8 °F 34.0 °F 41.0 °F 93% 29.18 in 5.0 mi SSE 20.7 mph - N/A Rain Light Rain Showers
10:40 PM 42.8 °F 34.0 °F 41.0 °F 93% 29.18 in 6.2 mi SSE 20.7 mph - N/A Rain Light Rain
10:44 PM 42.8 °F 34.3 °F 41.0 °F 93% 29.18 in 6.2 mi SSE 19.6 mph - N/A Rain Light Rain
10:48 PM 42.8 °F 34.3 °F 41.0 °F 93% 29.18 in 6.2 mi SSE 19.6 mph - N/A Rain Light Rain Showers
10:55 PM 42.8 °F 34.3 °F 41.0 °F 93% 29.18 in 5.6 mi SSE 19.6 mph - N/A Rain Light Rain Showers
11:00 PM 43 °F - 42 °F 93% 29.17 in 5 mi SSE 22.4 mph - - Rain Rain
11:06 PM 42.8 °F 33.5 °F 41.0 °F 93% 29.15 in 5.6 mi SSE 23.0 mph - N/A Rain Light Rain Showers
11:10 PM 42.8 °F 33.8 °F 42.8 °F 100% 29.15 in 5.6 mi SSE 21.9 mph 33.4 mph N/A Rain Light Rain
11:14 PM 42.8 °F 34.0 °F 42.8 °F 100% 29.15 in 6.2 mi SSE 20.7 mph - N/A Rain Light Rain
11:25 PM 42.8 °F 33.8 °F 42.8 °F 100% 29.15 in 6.2 mi SSE 21.9 mph 33.4 mph N/A Rain Light Rain
11:28 PM 44.6 °F 36.1 °F 42.8 °F 93% 29.15 in 6.2 mi SSE 21.9 mph - N/A Rain Light Rain
11:32 PM 44.6 °F 36.1 °F 42.8 °F 93% 29.15 in 6.2 mi South 21.9 mph - N/A Rain Light Rain
11:55 PM 44.6 °F 36.4 °F 42.8 °F 93% 29.15 in 6.2 mi SSE 20.7 mph - N/A Rain Light Rain